Long Beach, CA

4:07 AM PDT on September 29, 2016 (GMT -0700)
Long Beach

Weather History for KLGB - December, 2012

Change the Weather History Date:

Thursday, December 6, 2012

  Actual Average Record
Temperature  
Mean Temperature 62 °F 57 °F  
Max Temperature 67 °F 67 °F 86 °F (1990)
Min Temperature 56 °F 46 °F 36 °F (1968)
Degree Days  
Heating Degree Days 3 8  
Month to date heating degree days 17 47  
Since 1 July heating degree days 94 196  
Cooling Degree Days 0 0  
Month to date cooling degree days 0 0  
Year to date cooling degree days 1383 1125  
Growing Degree Days 12 (Base 50)    
Moisture  
Dew Point 55 °F    
Average Humidity 77    
Maximum Humidity 86    
Minimum Humidity 67    
Precipitation  
Precipitation 0.00 in 0.06 in 1.81 in (1997)
Month to date precipitation 0.66 0.30  
Year to date precipitation 6.47 10.61  
Since 1 July precipitation 2.06  
Sea Level Pressure  
Sea Level Pressure 29.95 in    
Wind  
Wind Speed 2 mph (West)    
Max Wind Speed 12 mph    
Max Gust Speed 24 mph    
Visibility 5 miles    
Events      
T = Trace of Precipitation, MM = Missing Value Source: NWS Daily Summary

Daily Weather History Graph

Daily Weather History Graph

Search for Another Location

Airport or City:

Trip Planner

Search our weather history database for the weather conditions in past years. The results will help you decide how hot, cold, wet, or windy it might be!

Date:

Astronomy

Dec. 06, 2012 Rise Set
Actual Time 6:44 AM PST 4:43 PM PST
Civil Twilight 6:16 AM PST 5:11 PM PST
Nautical Twilight 5:45 AM PST 5:42 PM PST
Astronomical Twilight 5:15 AM PST 6:12 PM PST
Moon No Moon Rise 11:55 AM PST (12/6)
Length of Visible Light 10h 54m
Length of Day
9h 59m
Waning Gibbous, 48% of the Moon is Illuminated
Dec 6
Waning Gibbous
Dec 13
New
Dec 19
First Quarter
Dec 28
Full
Jan 4
Last Quarter

Hourly Weather History & Observations

Time (PST) Temp. Dew Point Humidity Pressure Visibility Wind Dir Wind Speed Gust Speed Precip Events Conditions
12:53 AM 60.1 °F 55.9 °F 86% 30.01 in 5.0 mi Calm Calm - N/A   Overcast
1:38 AM 60.8 °F 55.4 °F 82% 30.01 in 5.0 mi ENE 4.6 mph - N/A   Haze
1:53 AM 61.0 °F 55.9 °F 83% 30.01 in 5.0 mi ENE 3.5 mph - N/A   Haze
2:53 AM 60.1 °F 55.9 °F 86% 29.99 in 5.0 mi East 3.5 mph - N/A   Overcast
3:53 AM 60.1 °F 55.9 °F 86% 29.98 in 5.0 mi Calm Calm - N/A   Overcast
4:53 AM 60.1 °F 55.9 °F 86% 29.96 in 5.0 mi Calm Calm - N/A   Overcast
5:53 AM 60.1 °F 55.9 °F 86% 29.96 in 5.0 mi Calm Calm - N/A   Overcast
6:53 AM 60.1 °F 55.0 °F 83% 29.97 in 6.0 mi Calm Calm - N/A   Haze
7:53 AM 61.0 °F 55.0 °F 81% 29.98 in 4.0 mi Calm Calm - N/A   Haze
8:53 AM 62.1 °F 54.0 °F 75% 29.99 in 4.0 mi Calm Calm - N/A   Haze
9:53 AM 63.0 °F 54.0 °F 72% 30.00 in 4.0 mi Calm Calm - N/A   Haze
10:53 AM 63.0 °F 54.0 °F 72% 29.98 in 4.0 mi NW 3.5 mph - N/A   Haze
11:53 AM 64.0 °F 54.0 °F 70% 29.95 in 4.0 mi WNW 3.5 mph - N/A   Haze
12:53 PM 66.9 °F 55.0 °F 66% 29.91 in 4.0 mi Calm Calm - N/A   Haze
1:53 PM 66.0 °F 55.9 °F 70% 29.88 in 6.0 mi SSW 6.9 mph - N/A   Haze
2:53 PM 64.9 °F 55.9 °F 73% 29.88 in 8.0 mi South 6.9 mph - N/A   Clear
3:53 PM 63.0 °F 57.0 °F 81% 29.88 in 8.0 mi SSW 6.9 mph - N/A   Clear
4:53 PM 63.0 °F 57.0 °F 81% 29.88 in 4.0 mi Calm Calm - N/A   Haze
5:53 PM 61.0 °F 55.0 °F 81% 29.89 in 4.0 mi NW 5.8 mph - N/A   Haze
6:53 PM 61.0 °F 55.0 °F 81% 29.91 in 5.0 mi WNW 3.5 mph - N/A   Haze
7:53 PM 60.1 °F 55.0 °F 83% 29.92 in 5.0 mi Calm Calm - N/A   Haze
8:53 PM 59.0 °F 54.0 °F 83% 29.93 in 4.0 mi Calm Calm - N/A   Haze
9:16 PM 59.0 °F 55.4 °F 88% 29.93 in 4.0 mi Calm Calm - N/A   Clear
9:53 PM 57.9 °F 54.0 °F 87% 29.93 in 4.0 mi Calm Calm - N/A   Clear
10:53 PM 57.0 °F 53.1 °F 87% 29.93 in 4.0 mi Calm Calm - N/A   Clear
11:51 PM 57.2 °F 53.6 °F 88% 29.94 in 3.0 mi Calm Calm - N/A   Overcast
11:53 PM 57.0 °F 53.1 °F 87% 29.94 in 3.0 mi Calm Calm - N/A   Overcast